Location: ????????
(55.3939°N, 37.4780°E)
Time: 21:04:08
(UTC+00:00)

Spot 4 - Pass Details

Date: 14 April 2026
Orbit: 698 x 714 km, 98.2° (Epoch: 16 May)

Event Time Altitude Azimuth Distance (km) Brightness Sun altitude
Exits shadow 20:32:21 74° 152° (SSE) 731 3.6 -23.8°
Maximum altitude 20:32:46 87° 77° (ENE) 708 3.7 -23.9°
Drops below altitude 10° 20:37:33 10° 345° (NNW) 2,174 7.4 -24.0°
Sets 20:39:49 0° 345° (NNW) 3,097 8.6 -24.1°
